Location: Newark
(29.9790°N, 31.1340°E)
Time: 19:21:30
(UTC+00:00)

A-11 Canister half - Pass Details

Date: 29 January 2020
Orbit: 1524 x 1684 km, 47.3° (Epoch: 19 February)

Event Time Altitude Azimuth Distance (km) Brightness Sun altitude
Rises 16:56:43 0° 290° (WNW) 4,683 12.6 -19.0°
Reaches altitude 10° 17:00:27 10° 303° (WNW) 3,714 11.7 -19.8°
Maximum altitude 17:08:06 27° 358° (N) 2,656 10.2 -21.4°
Enters shadow 17:12:44 19° 37° (NE) 3,121 10.2 -22.4°
